sat.trackr.live / text

‹ back to catalog

STARLINK-4561

NORAD 53563 · 2022-101AN

PAYLOAD ACTIVE UNKNOWN

§ Identity

Operator
Country
US
Launch date
2022-08-19
Launch site
AFETR
Launch vehicle
Mass (kg)
RCS (m²)

Purposes: comms

External: N2YO · Heavens-Above · Gunter

§ Orbital elements

Epoch: 2026-05-25T01:48:21.766752Z

Period
95.44 min
Inclination
53.2131°
Eccentricity
0.0001903
Mean motion
15.08845919 rev/d
Perigee alt
538.4 km
Apogee alt
541.0 km
Semi-major
6,917.9 km
B*
-7.9271e-5
RAAN
71.4375°
Arg perigee
84.2708°
Mean anomaly
275.8501°
Rev number
20,797

§ Raw data

STARLINK-45611 53563U 22101AN  26145.07525193 -.00001550  00000+0 -79271-4 0  99902 53563  53.2131  71.4375 0001903  84.2708 275.8501 15.08845919207971

JSON: /api/v1/satellites/53563 · /tle

For live sub-satellite position, see the globe view (requires WebGL).

§ Visibility from observer

Set your observer location to see the next 7 days of passes ≥ 10°. The values pass through the URL so the page stays shareable.

No JS? Fill the form by hand. The geolocation button needs JavaScript.